This is the latest recevied weather packets stored in our database for station/object W5ADC. If no packets are shown the sender has not sent any weather packets the latest 10 day(s).
| Time | Temp. | Humidity | Pressure | Rain* | Wind** | Luminosity | Snow |
|---|---|---|---|---|---|---|---|
| 1788535436 | 30° C | 75% | 1011.6 hPa | 0 mm | - | 454 W/m² | - |
| 1788535135 | 29.44° C | 75% | 1011.4 hPa | 0 mm | - | 436 W/m² | - |
| 1788534830 | 30° C | 75% | 1011.7 hPa | 0 mm | - | 417 W/m² | - |
| 1788534526 | 30° C | 76% | 1011.3 hPa | 0 mm | - | 405 W/m² | - |
| 1788534221 | 29.44° C | 78% | 1011.4 hPa | 0 mm | - | 384 W/m² | - |
| 1788533918 | 28.89° C | 79% | 1011.4 hPa | 0 mm | - | 370 W/m² | - |
| 1788533615 | 28.89° C | 80% | 1011.5 hPa | 0 mm | - | 342 W/m² | - |
| 1788533310 | 28.33° C | 82% | 1011.5 hPa | 0 mm | - | 352 W/m² | - |
| 1788533006 | 28.89° C | 81% | 1011.5 hPa | 0 mm | - | 335 W/m² | - |
| 1788532701 | 28.33° C | 82% | 1011.4 hPa | 0 mm | - | 353 W/m² | - |
| 1788532398 | 28.33° C | 83% | 1011.5 hPa | 0 mm | - | 207 W/m² | - |
| 1788532094 | 27.78° C | 84% | 1011.4 hPa | 0 mm | - | 288 W/m² | - |
| 1788531790 | 28.33° C | 84% | 1011.4 hPa | 0 mm | - | 344 W/m² | - |
| 1788531484 | 27.78° C | 85% | 1011.3 hPa | 0 mm | - | 269 W/m² | - |
| 1788531179 | 27.22° C | 87% | 1011.7 hPa | 0 mm | - | 151 W/m² | - |
| 1788530875 | 26.67° C | 88% | 1011.3 hPa | 0 mm | - | 176 W/m² | - |
| 1788530570 | 26.67° C | 89% | 1011.5 hPa | 0 mm | - | 120 W/m² | - |
| 1788530269 | 27.22° C | 88% | 1011.6 hPa | 0 mm | - | 131 W/m² | - |
| 1788529964 | 26.67° C | 89% | 1011.5 hPa | 0 mm | - | 171 W/m² | - |
| 1788529661 | 26.11° C | 90% | 1011.5 hPa | 0 mm | - | 127 W/m² | - |
| 1788529360 | 26.11° C | 91% | 1011.1 hPa | 0 mm | - | 101 W/m² | - |
| 1788529055 | 26.11° C | 91% | 1011.3 hPa | 0 mm | - | 94 W/m² | - |
| 1788528751 | 26.11° C | 91% | 1011.3 hPa | 0 mm | - | 83 W/m² | - |
| 1788528450 | 26.11° C | 91% | 1010.8 hPa | 0 mm | - | 91 W/m² | - |
| 1788528146 | 26.11° C | 91% | 1010.7 hPa | 0 mm | - | 86 W/m² | - |
* Rain latest hour (hover to see other rain measurements)
** Current wind speed in m/s (hover to see current wind gust speed)